Regional Weather Roundup
Issued by NWS Huntsville, AL

Home | Current Version | Previous Version | Text Only | Print | Product List | Glossary On
Versions: 1 2 3 4 5 6 7 8 9 10 11 12 13 14 15 16 17 18 19 20 21 22 23 24 25 26 27
000
ASUS44 KHUN 260410
RWRHUN

WEATHER ROUNDUP FOR THE TENNESSEE VALLEY
NATIONAL WEATHER SERVICE HUNTSVILLE AL
1100 PM CDT WED MAY 25 2016

ALZ001>004-260500-
NORTHWEST ALABAMA

CITY           SKY/WX    TMP DP  RH WIND       PRES   REMARKS
COURTLAND HCN    N/A     68 N/A N/A S6          N/A
RUSSELLVILLE     N/A     63 N/A N/A MISG        N/A
SHOALS AIRPORT CLEAR     67  61  81 S3        30.12F
SHOALS TVA RES   N/A     64 N/A N/A MISG        N/A
$$

ALZ005>007-016-260500-
NORTH CENTRAL ALABAMA

CITY           SKY/WX    TMP DP  RH WIND       PRES   REMARKS
DECATUR AP     CLOUDY    72  61  68 S8        30.12F
HUNTSVILLE AP  PTCLDY    75  59  57 S8        30.12F
HUN NWS/UAH      N/A     75  57  54 SE3         N/A
MERIDIANVILLE  CLOUDY    73  54  49 S5        30.12F
REDSTONE ARSN  CLOUDY    74  60  59 S3        30.11F
VINEMONT AP    FAIR      68  61  77 CALM      30.17F
$$

ALZ008>010-260500-
NORTHEAST ALABAMA

CITY           SKY/WX    TMP DP  RH WIND       PRES   REMARKS
ALBERTVILLE    PTCLDY    72  66  83 CALM      30.16R
FORT PAYNE     PTCLDY    66  59  77 CALM      30.15F
SCOTTSBORO AP  PTCLDY    75  61  60 S12       30.11F
SCOTTSBORO HCN   N/A     70 N/A N/A MISG        N/A
VALLEY HEAD      N/A     66 N/A N/A MISG        N/A
$$

TNZ076-096-097-260500-
SOUTHEASTERN MIDDLE TENNESSEE

CITY           SKY/WX    TMP DP  RH WIND       PRES   REMARKS
TULLAHOMA      MOCLDY    70  59  68 CALM      30.13S
WINCHESTER     CLEAR     70  61  73 S5        30.13R
$$

...SURROUNDING SITES...

CITY           SKY/WX    TMP DP  RH WIND       PRES   REMARKS
ATLANTA        MOCLDY    75  57  53 S3        30.19F
ANNISTON       CLEAR     68  61  78 SW3       30.17F
BIRMINGHAM     CLOUDY    73  62  68 CALM      30.18F
CHATTANOOGA    CLOUDY    74  58  57 S5        30.14F
DALTON         CLEAR     70  61  73 CALM      30.15F
GADSDEN        CLOUDY    70  62  76 S5        30.15F
GOLDEN TRNGL   PTCLDY    75  61  60 SE7       30.12F
HALEYVILLE     FAIR      64  63  96 CALM      30.16F FOG
JACKSON TN     CLEAR     65  62  90 SE3       30.08S
MEMPHIS        PTCLDY    72  65  78 S9        30.07S
NASHVILLE      MOCLDY    66  63  90 CALM      30.10S
OXFORD MS      FAIR      73  59  60 SE9G16    30.11F
ROME           CLEAR     67  60  78 S5        30.14F
SAVANNAH       PTCLDY    64  63  94 S6        30.09F
TUPELO         CLEAR     70  61  73 SE5       30.11F
TUSCALOOSA     PTCLDY    71  62  73 CALM      30.13F
$$

...GULF COAST WEATHER...

CITY           SKY/WX    TMP DP  RH WIND       PRES   REMARKS
GULFPORT       PTCLDY    75  69  81 SE6       30.14S
PASCAGOULA     MOCLDY    64  64 100 CALM      30.16R
MOBILE         CLOUDY    69  65  86 CALM      30.17S
GULF SHORES    CLOUDY    65  65 100 W5        30.16F
DESTIN         PTCLDY    79  74  84 S3        30.17S
PANAMA CITY    DRZL/FOG  70  68  94 SE2       30.16  VSB 3/4
APPALACHICOLA  PTCLDY    70  69  97 CALM      30.17S
$$





USA.gov is the U.S. government's official web portal to all federal, state and local government web resources and services.